Regional & State Weather Roundups


406 
ASUS42 KCAE 170010
RWRCAE
REGIONAL WEATHER ROUNDUP
NATIONAL WEATHER SERVICE COLUMBIA SC
700 PM EST SAT DEC 16 2017
NOTE: "FAIR" INDICATES FEW OR NO CLOUDS BELOW 12,000 FEET WITH NO
SIGNIFICANT WEATHER AND/OR OBSTRUCTIONS TO VISIBILITY.
NOT ALL STATIONS ARE QUALITY CONTROLLED BY THE NATIONAL 
WEATHER SERVICE. USE DATA WITH CAUTION...ESPECIALLY 
DEWPOINT OBSERVATIONS.
SCZ001>056-GAZ040-063>065-077-170100-
...UPSTATE SOUTH CAROLINA...
  
CITY           SKY/WX    TMP DP  RH WIND       PRES   REMARKS
ANDERSON       CLOUDY    38  28  67 CALM      30.25R                  
6HR MIN TEMP:  38; 6HR MAX TEMP:  50;                                
LIBERTY        CLOUDY    38  27  65 CALM      30.23R                  
6HR MIN TEMP:  37; 6HR MAX TEMP:  50;                                
SPARTANBURG    CLOUDY    41  23  48 CALM      30.23R                  
CLEMSON        CLOUDY    44  25  47 S3        30.24R                  
6HR MIN TEMP:  43; 6HR MAX TEMP:  50;                                
GREENVILLE     CLOUDY    46  24  42 SW3       30.24R                  
                                      6HR PCP: TRACE;                
GREENWOOD      CLOUDY    41  26  55 CALM      30.27R                  
6HR MIN TEMP:  39; 6HR MAX TEMP:  50;                                
GREER          CLOUDY    42  25  50 SW7       30.24R                  
6HR MIN TEMP:  41; 6HR MAX TEMP:  49;                                
ROCK HILL      CLOUDY    36  25  64 SW3       30.24R                  
6HR MIN TEMP:  34; 6HR MAX TEMP:  50;                                
CHESTER        CLOUDY    39  27  60 CALM      30.24S                  
LAURENS        PTCLDY    39  28  65 CALM      30.25R                  
...CENTRAL SOUTH CAROLINA...
  
CITY           SKY/WX    TMP DP  RH WIND       PRES   REMARKS
COLUMBIA APT   CLOUDY    43  33  68 CALM      30.26R                  
6HR MIN TEMP:  41; 6HR MAX TEMP:  55;                                
COLUMBIA OWENS CLOUDY    42  31  64 CALM      30.27R                  
6HR MIN TEMP:  42; 6HR MAX TEMP:  53;                                
MCENTIRE ANGB  CLOUDY    38  33  80 CALM      30.26R                  
6HR MIN TEMP:  38; 6HR MAX TEMP:  54;                                
ORANGEBURG     CLEAR     40  32  73 CALM      30.27R                  
6HR MIN TEMP:  40; 6HR MAX TEMP:  54;                                
SUMTER SHAW    CLOUDY    42  30  62 CALM      30.24R                  
6HR MIN TEMP:  42; 6HR MAX TEMP:  53;                                
NEWBERRY       CLOUDY    37  30  75 CALM      30.29R                  
AIKEN          FAIR      37  28  70 CALM      30.30R                  
BARNWELL         N/A     41  36  81 CALM      30.27R                  
MANNING        FAIR      36  32  87 MISG      30.28R                  
CAMDEN         FAIR      37  30  75 CALM      30.26S                  
LANCASTER      PTCLDY    41  25  52 CALM      30.25S                  
WINNSBORO      CLOUDY    43  30  61 SW3       30.25R                  
...EASTERN AND COASTAL SOUTH CAROLINA...
  
CITY           SKY/WX    TMP DP  RH WIND       PRES   REMARKS
MYRTLE BEACH   PTCLDY    40  34  79 CALM      30.30R                  
6HR MIN TEMP:  40; 6HR MAX TEMP:  50;                                
N MYRTLE BCH   PTCLDY    40  35  83 CALM      30.28R                  
6HR MIN TEMP:  40; 6HR MAX TEMP:  51;                                
CONWAY         FAIR      36  36 100 CALM      30.28S                  
MARION         FAIR      37  32  81 CALM      30.28R                  
HARTSVILLE     FAIR      36  28  75 CALM      30.26R                  
FLORENCE       CLOUDY    39  31  72 CALM      30.27R                  
6HR MIN TEMP:  39; 6HR MAX TEMP:  51;                                
DARLINGTON     PTCLDY    38  29  70 CALM      30.27R                  
6HR MIN TEMP:  37; 6HR MAX TEMP:  51;                                
CHARLESTON APT CLEAR     44  37  76 S5        30.28R                  
6HR MIN TEMP:  41; 6HR MAX TEMP:  55;                                
MOUNT PLEASANT FAIR      39  37  93 CALM      30.28S                  
WALTERBORO     CLEAR     39  34  81 CALM      30.29R                  
BEAUFORT       CLEAR     42  39  89 SW3       30.29R                  
6HR MIN TEMP:  42; 6HR MAX TEMP:  55;                                
...EASTERN GEORGIA...
  
CITY           SKY/WX    TMP DP  RH WIND       PRES   REMARKS
AUGUSTA BUSH F CLEAR     37  30  75 CALM      30.28R                  
6HR MIN TEMP:  37; 6HR MAX TEMP:  54;                                
AUGUSTA DANIEL CLEAR     47  28  47 CALM      30.28R                  
6HR MIN TEMP:  46; 6HR MAX TEMP:  54;                                
THOMSON        CLEAR     37  30  78 CALM      30.32R                  
6HR MIN TEMP:  36; 6HR MAX TEMP:  53;                                
WASHINGTON     FAIR      37  32  81 SW5       30.26S WCI  34          
CLAXTON        FAIR      41  39  91 CALM      30.29R                  
6HR MIN TEMP:  41; 6HR MAX TEMP:  58;                                
SYLVANIA       CLOUDY    41  37  85 CALM      30.29R                  
6HR MIN TEMP:  41; 6HR MAX TEMP:  55;                                
STATESBORO     CLEAR     38  32  79 CALM      30.29R                  
6HR MIN TEMP:  38; 6HR MAX TEMP:  56;                                
SAVANNAH       CLEAR     46  35  65 CALM      30.29                   
6HR MIN TEMP:  46; 6HR MAX TEMP:  57;                                
...SOUTHERN NORTH CAROLINA...
  
CITY           SKY/WX    TMP DP  RH WIND       PRES   REMARKS
CHARLOTTE      CLOUDY    41  24  51 S3        30.23S                  
6HR MIN TEMP:  41; 6HR MAX TEMP:  50;                                
MONROE         CLOUDY    37  24  59 CALM      30.23R                  
6HR MIN TEMP:  37; 6HR MAX TEMP:  50;                                
ASHEVILLE      CLOUDY    40  24  53 CALM      30.21R                  
6HR MIN TEMP:  40; 6HR MAX TEMP:  49;                                
$$